Colby, KS

12:13 PM CDT on October 20, 2019 (GMT -0500)
Shaltz

Weather History for KCBK - September, 2019

Change the Weather History Date:

Thursday, September 19, 2019

  Actual Average (WUND) Record (WUND)
Temperature  
Mean Temperature 72 °F -  
Max Temperature 91 °F - - (-1)
Min Temperature 53 °F - - (-1)
Cooling Degree Days 7    
Growing Degree Days 22 (Base 50)    
Moisture  
Dew Point 54 °F    
Average Humidity 65    
Maximum Humidity 100    
Minimum Humidity 26    
Precipitation  
Precipitation 0.00 in - - ()
Sea Level Pressure  
Sea Level Pressure 29.95 in    
Wind  
Wind Speed 8 mph (SSE)    
Max Wind Speed 26 mph    
Max Gust Speed 32 mph    
Visibility 10 miles    
Events      
Averages and records for this station are not official NWS values.
T = Trace of Precipitation, MM = Missing Value Source: NWS Daily Summary

Daily Weather History Graph

Daily Weather History Graph

Search for Another Location

Airport or City:

Astronomy

Sep. 19, 2019 Rise Set
Actual Time 7:28 AM CDT 7:46 PM CDT
Civil Twilight 7:02 AM CDT 8:13 PM CDT
Nautical Twilight 6:30 AM CDT 8:44 PM CDT
Astronomical Twilight 5:58 AM CDT 9:16 PM CDT
Moon 10:58 PM CDT (9/19) 12:32 PM CDT (9/19)
Length of Visible Light 13h 11m
Length of Day
12h 17m
Waning Gibbous, 74% of the Moon is Illuminated
Sep 19
Waning Gibbous
Sep 21
Last Quarter
Sep 28
New
Oct 5
First Quarter
Oct 13
Full

Hourly Weather History & Observations

Time (CDT) Temp. Heat Index Dew Point Humidity Pressure Visibility Wind Dir Wind Speed Gust Speed Precip Events Conditions
12:35 AM 60.8 °F - 57.2 °F 88% 30.00 in 10.0 mi NNE 6.9 mph - N/A   Clear
12:55 AM 60.8 °F - 55.4 °F 82% 30.01 in 10.0 mi NE 5.8 mph - N/A   Clear
1:15 AM 59.0 °F - 55.4 °F 88% 30.01 in 10.0 mi ENE 3.5 mph - N/A   Clear
1:35 AM 57.2 °F - 55.4 °F 94% 30.01 in 10.0 mi Calm Calm - N/A   Clear
1:55 AM 55.4 °F - 55.4 °F 100% 30.00 in 10.0 mi Calm Calm - N/A   Clear
2:15 AM 55.4 °F - 55.4 °F 100% 30.01 in 10.0 mi Calm Calm - N/A   Clear
2:35 AM 57.2 °F - 57.2 °F 100% 29.99 in 10.0 mi North 4.6 mph - N/A   Clear
2:55 AM 57.2 °F - 55.4 °F 94% 29.99 in 10.0 mi Calm Calm - N/A   Clear
3:15 AM 53.6 °F - 53.6 °F 100% 29.98 in 10.0 mi Calm Calm - N/A   Clear
3:35 AM 53.6 °F - 53.6 °F 100% 29.98 in 10.0 mi Calm Calm - N/A   Clear
3:55 AM 53.6 °F - 53.6 °F 100% 29.98 in 10.0 mi Calm Calm - N/A   Clear
4:15 AM 53.6 °F - 53.6 °F 100% 29.98 in 10.0 mi Calm Calm - N/A   Clear
4:35 AM 57.2 °F - 55.4 °F 94% 29.98 in 10.0 mi East 3.5 mph - N/A   Clear
4:55 AM 55.4 °F - 55.4 °F 100% 29.97 in 10.0 mi East 3.5 mph - N/A   Clear
5:15 AM 55.4 °F - 55.4 °F 100% 29.97 in 10.0 mi East 4.6 mph - N/A   Clear
5:35 AM 55.4 °F - 55.4 °F 100% 29.97 in 10.0 mi East 4.6 mph - N/A   Clear
5:55 AM 55.4 °F - 55.4 °F 100% 29.96 in 2.5 mi NE 5.8 mph - N/A   Clear
6:15 AM 55.4 °F - 55.4 °F 100% 29.97 in 7.0 mi ENE 5.8 mph - N/A   Clear
6:35 AM 55.4 °F - 55.4 °F 100% 29.96 in 7.0 mi ESE 3.5 mph - N/A   Clear
6:55 AM 55.4 °F - 55.4 °F 100% 29.96 in 5.0 mi East 4.6 mph - N/A   Clear
7:15 AM 55.4 °F - 55.4 °F 100% 29.96 in 7.0 mi Calm Calm - N/A   Clear
7:35 AM 57.2 °F - 57.2 °F 100% 29.97 in 10.0 mi Calm Calm - N/A   Clear
7:55 AM 57.2 °F - 57.2 °F 100% 29.97 in 10.0 mi Calm Calm - N/A   Clear
8:15 AM 59.0 °F - 59.0 °F 100% 29.98 in 10.0 mi Calm Calm - N/A   Clear
8:55 AM 62.6 °F - 60.8 °F 94% 29.98 in 10.0 mi SSE 5.8 mph - N/A   Clear
9:15 AM 62.6 °F - 60.8 °F 94% 29.98 in 10.0 mi South 3.5 mph - N/A   Clear
9:35 AM 64.4 °F - 60.8 °F 88% 29.98 in 10.0 mi South 4.6 mph - N/A   Clear
9:55 AM 68.0 °F - 59.0 °F 73% 29.98 in 10.0 mi South 6.9 mph - N/A   Clear
10:15 AM 71.6 °F - 59.0 °F 64% 29.99 in 10.0 mi South 8.1 mph - N/A   Clear
10:55 AM 75.2 °F - 55.4 °F 50% 29.98 in 10.0 mi SSW 9.2 mph - N/A   Clear
11:15 AM 77.0 °F - 57.2 °F 50% 29.98 in 10.0 mi SSW 10.4 mph - N/A   Clear
11:35 AM 78.8 °F - 55.4 °F 44% 29.98 in 10.0 mi SSW 11.5 mph - N/A   Clear
11:55 AM 80.6 °F 80.5 °F 55.4 °F 42% 29.98 in 10.0 mi SSW 9.2 mph 16.1 mph N/A   Clear
12:15 PM 82.4 °F 81.7 °F 55.4 °F 39% 29.97 in 10.0 mi SSW 11.5 mph 17.3 mph N/A   Clear
12:55 PM 86.0 °F 84.2 °F 53.6 °F 33% 29.96 in 10.0 mi South 9.2 mph - N/A   Clear
1:15 PM 86.0 °F 84.5 °F 55.4 °F 35% 29.96 in 10.0 mi South 9.2 mph 16.1 mph N/A   Clear
1:35 PM 87.8 °F 85.7 °F 53.6 °F 31% 29.95 in 10.0 mi South 10.4 mph 19.6 mph N/A   Clear
1:55 PM 89.6 °F 87.3 °F 53.6 °F 29% 29.94 in 10.0 mi SSE 17.3 mph 25.3 mph N/A   Clear
2:15 PM 89.6 °F 87.3 °F 53.6 °F 29% 29.93 in 10.0 mi South 16.1 mph 20.7 mph N/A   Clear
2:35 PM 89.6 °F 87.3 °F 53.6 °F 29% 29.93 in 10.0 mi SSE 17.3 mph 23.0 mph N/A   Clear
2:55 PM 91.4 °F 89.1 °F 53.6 °F 28% 29.92 in 10.0 mi South 15.0 mph 25.3 mph N/A   Clear
3:15 PM 91.4 °F 89.1 °F 53.6 °F 28% 29.92 in 10.0 mi SSE 19.6 mph 24.2 mph N/A   Clear
3:35 PM 91.4 °F 89.1 °F 53.6 °F 28% 29.91 in 10.0 mi SSE 18.4 mph 26.5 mph N/A   Clear
4:35 PM 91.4 °F - 51.8 °F 26% 29.88 in 10.0 mi SSE 21.9 mph 28.8 mph N/A   Clear
4:55 PM 91.4 °F - 51.8 °F 26% 29.87 in 10.0 mi SSE 18.4 mph 28.8 mph N/A   Scattered Clouds
5:15 PM 89.6 °F - 51.8 °F 27% 29.88 in 10.0 mi SSE 23.0 mph 31.1 mph N/A   Scattered Clouds
5:35 PM 89.6 °F - 51.8 °F 27% 29.87 in 10.0 mi SSE 19.6 mph 28.8 mph N/A   Clear
5:55 PM 87.8 °F - 51.8 °F 29% 29.86 in 10.0 mi SSE 17.3 mph 28.8 mph N/A   Clear
6:15 PM 86.0 °F - 51.8 °F 31% 29.87 in 10.0 mi SSE 19.6 mph 26.5 mph N/A   Clear
6:35 PM 86.0 °F 84.2 °F 53.6 °F 33% 29.90 in 10.0 mi SSE 20.7 mph 24.2 mph N/A   Clear
6:55 PM 82.4 °F 81.4 °F 53.6 °F 37% 29.90 in 10.0 mi SSE 20.7 mph 27.6 mph N/A   Clear
7:15 PM 82.4 °F 81.4 °F 53.6 °F 37% 29.91 in 10.0 mi SSE 23.0 mph 29.9 mph N/A   Clear
7:35 PM 73.4 °F - 51.8 °F 47% 29.93 in 10.0 mi SSW 21.9 mph 32.2 mph N/A   Scattered Clouds
7:55 PM 66.2 °F - 59.0 °F 78% 29.93 in 10.0 mi South 13.8 mph 25.3 mph N/A   Mostly Cloudy
8:15 PM 64.4 °F - 59.0 °F 83% 29.91 in 10.0 mi South 5.8 mph - N/A   Overcast
8:35 PM 68.0 °F - 55.4 °F 64% 29.92 in 10.0 mi SSE 21.9 mph - N/A   Mostly Cloudy
8:55 PM 69.8 °F - 51.8 °F 53% 29.92 in 10.0 mi South 17.3 mph 26.5 mph N/A   Scattered Clouds
9:15 PM 68.0 °F - 51.8 °F 56% 29.92 in 10.0 mi South 19.6 mph 27.6 mph N/A   Clear
9:35 PM 69.8 °F - 50.0 °F 49% 29.94 in 10.0 mi South 24.2 mph 27.6 mph N/A   Clear
9:55 PM 68.0 °F - 51.8 °F 56% 29.93 in 10.0 mi SE 26.5 mph 32.2 mph N/A   Clear
10:15 PM 69.8 °F - 50.0 °F 49% 29.93 in 10.0 mi SSE 16.1 mph - N/A   Clear
10:35 PM 69.8 °F - 48.2 °F 46% 29.96 in 10.0 mi SSE 17.3 mph - N/A   Clear
10:55 PM 71.6 °F - 46.4 °F 41% 29.98 in 10.0 mi SSE 13.8 mph 27.6 mph N/A   Clear
11:15 PM 69.8 °F - 46.4 °F 43% 29.97 in 10.0 mi SE 11.5 mph 25.3 mph N/A   Clear
11:35 PM 69.8 °F - 48.2 °F 46% 29.98 in 10.0 mi SSE 15.0 mph 18.4 mph N/A   Clear
11:55 PM 68.0 °F - 53.6 °F 60% 29.99 in 10.0 mi South 16.1 mph - N/A   Clear